Torna al catalogo

CZ-6A DEB

AttivoPO
NORAD 54482·DEBRIS·🇨🇳 China

Lanciato Nov 11, 2022 da Taiyuan Satellite Launch Center

Loading…

Prossimi Passaggi (prossime 24 ore)

TLE

AggiornatoSource: Space-Track

Epoca: Sep 14, 2026, 04:27 UTC

1 54482U 22151HJ  26257.18573303  .00008839  00000-0  11526-2 0  9991
2 54482  98.6270 334.4352 0059067 347.8205  12.1573 14.79590506203603

Traccia CZ-6A DEB in tempo reale con AllMySat

Download on the App Store